Погода Черновцы

Погода Черновцы : погода сейчас, прогноз погоды и архив. Всё, что Вы хотите узнать о погоде Черновцы!

Поиск расширенной информации на нашем сайте:

Полезная информация:

Другие новости

Новости СМИ2

Главная страница сайта

Новости сайта

03.07.2017

Напоминаем, что на нашем специализированном сайте Метеоцентр.Азия вы можете получить высокодетализированные автоматические прогнозы погоды по пунктам России, СНГ и мира в авиационном формате (включающие направление и скорость ветра, видимость, явления погоды, количество и форму облачности, нижнюю и верхнюю границу облачности).

Рекомендуем:

Погода Черновцы - сегодня

Время (UTC), дата Ветер
(°,м/с) 
Видим.   Явления Облачность Т
(°С)
Тd
(°С)
f(%) Тe
(°С)
Pmin
(гПа)
dP
(гПа)
Po
(мм)
O2
(г/м3)
Тmin Tmax R s Состояние
почвы
03 16.07.19 320 (СЗ) 19000 м    3/0 средняя 
[Ac trans]
+11.7 +11.1 96 +14  1012.5  -0.1  737  283           
06 16.07.19 330 (СЗ) 50000 м    3/0 верхняя 
[Ci fib]
+15.7 +11.7 77 +20  1012.6  0.5  738  279  +11.5         
09 16.07.19 350 (С) 50000 м    5/5 1500 м 
[Cu hum]
+20.6 +11.5 56 +24  1011.5  -0.6  737  274           
12 16.07.19 340 (С) 50000 м    8/8 1500 м 
[Cu hum]
+23.5 +9.2 40 +24  1010.1  -1.1  737  272           
15 16.07.19 290 (З) 50000 м    6/6 1500 м 
[Cu hum]
+24.6 +8.3 35 +25  1009.1  -0.9  736  271           
18 16.07.19 тихо ()   50000 м    8/8 1500 м 
[Sc diur, vesp]
+21.2 +10.7 51 +24  1009.4  736  273    +24.9       
21 16.07.19 230 (ЮЗ) 40000 м    4/0 средняя 
[Ac trans]
+16.6 +12.7 78 +22  1010.2  0.4  736  277           
00 17.07.19 300 (СЗ) 35000 м    3/0 средняя 
[Ac trans]
+15.1 +12.2 83 +21  1010.7  0.3  736  279           
03 17.07.19 300 (СЗ) 35000 м    8/0 средняя 
[Ac trans]
+15.1 +11.8 81 +20  1011.2  0.5  737  279           
06 17.07.19 300 (СЗ) 30000 м  {ливн. осадки}  8/3 1000 м кучево-дожд., средняя 
[Cb calv|Ac trans]
+16.3 +12.5 78 +22  1010.9  -0.2  737  278  +14    0.0     
09 17.07.19 350 (С) 40000 м    9/3 1000 м кучево-дожд., средняя 
[Cb calv|Ac trans]
+18.8 +11.6 63 +23  1010.2  -0.4  736  275           
12 17.07.19 320 (СЗ) 50000 м    8/8 1500 м 
[Cu hum]
+20.3 +10.2 52 +22  1009.4  -0.7  736  274           
15 17.07.19 280 (З) 50000 м    8/8 1500 м 
[Sc]
+22.3 +10.4 47 +24  1008.6  -0.6  735  272           
18 17.07.19 350 (С) 50000 м    9/9 1500 м 
[Sc]
+18.2 +10 59 +21  1010.7  1.7  737  276           
21 17.07.19 220 (ЮЗ) 50000 м    9/9 1500 м 
[Sc]
+15.1 +10 72 +17  1012.4  1.3  738  280           
00 18.07.19 310 (СЗ) 30000 м    ясно 
+12.9 +11.2 89 +16  1012.4  -0.2  737  282           
03 18.07.19 320 (СЗ) 7000 м  дымка  3/0 средняя 
[Ac trans]
+10.9 +10.5 97 +13  1013  0.4  738  284           
06 18.07.19 310 (СЗ) 50000 м    ясно 
+16.3 +10.7 69 +18  1013.2  0.7  738  279  +10.7  -2.4       
09 18.07.19 310 (СЗ) 50000 м    5/5 1500 м 
[Cu hum]
+20.3 +9.5 50 +21  1013  0.2  738  275           
12 18.07.19 340 (С) 50000 м    ясно 
+22.7 +8.3 40 +23  1012.6  -0.2  738  273           
15 18.07.19 330 (СЗ) 50000 м    3/3 1500 м 
[Cu hum]
+23.4 +9.3 41 +24  1012.4  -0.1  738  272           
18 18.07.19 330 (СЗ) 50000 м    8/5 1500 м верхняя 
[Sc diur, vesp|Ci fib]
+20.4 +9 48 +21  1013.8  1.1  739  276           
21 18.07.19 230 (ЮЗ) 40000 м    8/5 1500 м верхняя 
[Sc|Ci fib]
+17.8 +11.2 65 +22  1015.1  740  278           
00 19.07.19 340 (С) 26000 м    8/0 средняя 
[Ac trans]
+17.1 +12 72 +22  1015.8  0.6  740  278           
03 19.07.19 тихо ()   35000 м    8/5 1500 м средняя 
[Sc|Ac trans]
+15 +12.5 85 +20  1016.4  0.4  741  280           
Время (UTC), дата Ветер
(°,м/с) 
Видим.   Явления Облачность Т
(°С)
Тd
(°С)
f(%) Тe
(°С)
Pmin
(гПа)
dP
(гПа)
Po
(мм)
O2
(г/м3)
Тmin Tmax R s Состояние
почвы

Для получения пояснительной информации подведите курсор к названию столбца.

ПОГОДА Черновцы - архив

Всё, что Вы хотите узнать о погоде Черновцы - удобно и подробно!

Выберите нужную дату (начиная с 1 января 2018* года) и нажмите кнопку "Найти".
Будут отображены архивные сводки погоды по пункту Черновцы, начиная с указанной даты.


Отображать данные в формате CSV (для использования в таблицах Excel)


Внимание! Наш архив погоды предназначен исключительно для личного некоммерческого использования в познавательных целях. Если Вам необходимы официальные справки о состоянии погоды (для производственных, юридических, коммерческих и т.п. целей), обращайтесь в органы Росгидромета.

*Примечание: данная дата относится к архиву по метеостанциям СССР (Россия, СНГ, Балтия).
Архив по метеостанциям Зарубежной Европы и Азии (кроме Китая) хранится 10 дней, по другим регионам земного шара (Китай, Африка, Америка, Австралия, Океания) - 1 день.

Черновцы - район местоположения метеостанции


Название, широта, долгота, высота метеостанции:
Черновцы 48.4°ш. 25.9°д. 246 м над ур. моря [Украина]

Дополнительная информация

В oтличие oт бoльшинства пoгoдных сайтoв мы публикуем пoдрoбную метеoинфoрмацию в детальнoм прoфессиoнальнoм фoрмате.

Характеристики температуры и влажнoсти вoздуха измеряются на высoте 2 м в тени вдали oт зданий и деревьев.
Скoрoсть ветра измеряется на высoте 10 м (на урoвне рoста челoвека скoрoсть ветра ниже в 1.5-2 раза). Если метеoстанция нахoдится в гoрoде или в лесу, тo скoрoсть ветра занижена на 2-4 м/с пo сравнению с oткрытым местoм. Скoрoсть ветра над акватoриями крупных рек и oзёр, а также на вершинах хoлмoв на 2-5 м/с выше, чем в oбычных услoвиях.
Атмoсфернoе давление в разных тoчках местнoсти мoжет значительнo oтличаться oт давления на метеoстанции, в зависимoсти oт услoвий рельефа (при пoдъёме на 10 м давление пoнижается примернo на 1 мм рт.ст.).